period_start,C,m1,H,J0,J1,J2,J3,J4,J5,JA,JB,JC,JD,JJ,JK,JN,#
2017-05-29 00:02:05,0.03,0.25,0.00,26.38,29.32,31.99,14.22,46.49,1018.90,2021.96,3376.81,3012.36,3441.03,599.76,590.37,31.77,0000 0000 0000 0000 000000
2017-05-29 00:07:06,0.01,0.25,0.00,26.41,29.34,32.01,14.31,46.57,1018.97,2021.93,3376.06,3012.00,3440.81,600.00,590.71,31.82,0000 0000 0000 0000 000000
2017-05-29 00:12:08,-0.00,0.26,0.00,26.42,29.35,32.00,14.28,46.51,1019.00,2021.80,3375.79,3011.83,3440.09,600.39,590.90,31.87,0000 0000 0000 0000 000000
2017-05-29 00:17:09,0.03,0.26,0.00,26.44,29.35,32.03,14.28,46.53,1019.00,2021.69,3375.04,3011.18,3440.00,599.61,590.10,31.92,0000 0000 0000 0000 000000
2017-05-29 00:22:10,0.02,0.26,0.00,26.46,29.37,32.05,14.27,46.47,1019.03,2021.67,3374.78,3011.01,3439.68,599.96,590.56,31.97,0000 0000 0000 0000 000000
2017-05-29 00:27:11,-0.00,0.26,0.00,26.48,29.37,32.05,14.27,46.56,1018.93,2021.53,3374.03,3010.78,3439.03,600.10,590.57,32.02,0000 0000 0000 0000 000000
2017-05-29 00:32:13,0.03,0.26,0.00,26.50,29.40,32.09,14.27,46.57,1018.96,2021.42,3373.29,3010.10,3438.64,599.88,590.36,32.08,0000 0000 0000 0000 000000
2017-05-29 00:37:15,-0.01,0.26,0.00,26.51,29.40,32.11,14.28,46.53,1018.96,2021.09,3372.94,3009.99,3438.02,600.12,590.53,32.13,0000 0000 0000 0000 000000
2017-05-29 00:42:16,0.16,0.26,0.00,26.51,29.41,32.10,14.30,46.55,1019.02,2021.08,3370.36,3008.63,3436.60,600.02,590.40,32.18,0000 0000 0000 0000 000000
2017-05-29 00:47:17,0.25,0.28,0.00,26.36,29.42,32.40,14.29,46.58,1018.95,2021.03,3362.74,3004.47,3432.04,600.04,590.66,32.23,0000 0000 0000 0000 000000
2017-05-29 00:52:18,0.05,0.28,0.00,26.03,29.41,32.72,14.33,46.62,1018.97,2021.02,3361.54,3003.66,3430.79,599.83,591.32,32.28,0000 0000 0000 0000 000000
2017-05-29 00:57:19,0.04,0.28,0.00,25.71,29.38,32.73,14.44,46.56,1018.96,2021.09,3360.39,3002.98,3430.02,600.16,592.10,32.33,0000 0000 0000 0000 000000
2017-05-29 01:02:20,0.08,0.29,0.00,25.56,29.33,32.39,14.38,46.54,1018.81,2021.48,3359.39,3002.52,3429.91,599.94,592.11,32.38,0000 0000 0000 0000 000000
2017-05-29 01:07:21,0.03,0.29,0.00,25.67,29.27,32.06,14.35,46.49,1018.60,2021.94,3359.00,3002.40,3429.90,600.07,591.93,32.43,0000 0000 0000 0000 000000
2017-05-29 01:12:22,-0.00,0.29,0.00,25.71,29.22,31.79,14.34,46.45,1018.58,2021.99,3359.00,3002.75,3429.94,599.72,591.44,32.48,0000 0000 0000 0000 000000
2017-05-29 01:17:23,0.01,0.29,0.00,25.44,29.15,31.89,14.36,46.57,1018.57,2022.04,3358.90,3002.70,3429.90,600.02,592.26,32.53,0000 0000 0000 0000 000000
2017-05-29 01:22:25,0.13,0.29,0.00,25.25,29.09,31.78,14.31,46.74,1018.57,2022.58,3357.79,3001.78,3428.84,599.46,592.15,32.58,0000 0000 0000 0000 000000
2017-05-29 01:27:26,0.12,0.30,0.00,25.19,29.03,31.65,14.40,46.67,1018.57,2022.97,3355.99,3000.32,3427.20,600.07,592.79,32.63,0000 0000 0000 0000 000000
2017-05-29 01:32:27,0.09,0.31,0.00,25.14,28.96,31.53,14.41,46.58,1018.57,2022.99,3354.22,2998.72,3425.54,600.06,592.95,32.68,0000 0000 0000 0000 000000
2017-05-29 01:37:28,0.12,0.31,0.00,25.02,28.89,31.46,14.35,46.70,1018.57,2023.17,3352.40,2997.07,3423.77,600.01,593.09,32.73,0000 0000 0000 0000 000000
2017-05-29 01:42:30,0.14,0.32,0.00,25.04,28.83,31.43,14.42,46.68,1018.57,2023.82,3350.78,2995.67,3422.15,600.09,593.17,32.78,0000 0000 0000 0000 000000
2017-05-29 01:47:31,0.03,0.32,0.00,25.08,28.76,31.29,14.35,46.60,1018.57,2023.99,3349.91,2995.00,3421.31,599.68,592.62,32.83,0000 0000 0000 0000 000000
2017-05-29 01:52:32,0.05,0.33,0.00,25.06,28.69,31.23,14.32,46.66,1018.57,2024.01,3349.03,2994.18,3420.65,599.87,592.93,32.88,0000 0000 0000 0000 000000
2017-05-29 01:57:34,0.08,0.33,0.00,25.07,28.62,31.17,14.36,46.52,1018.57,2024.54,3348.52,2994.00,3420.05,599.95,593.14,32.93,0000 0000 0000 0000 000000
2017-05-29 02:02:35,0.02,0.33,0.00,25.10,28.55,31.13,14.32,46.58,1018.57,2024.97,3348.03,2993.99,3420.04,599.95,592.98,32.98,0000 0000 0000 0000 000000
2017-05-29 02:07:36,0.00,0.33,0.00,25.08,28.48,31.17,14.33,46.43,1018.57,2025.01,3348.03,2993.99,3420.22,599.88,592.73,33.04,0000 0000 0000 0000 000000
2017-05-29 02:12:38,0.04,0.33,0.00,25.09,28.41,31.04,14.41,46.59,1018.56,2025.37,3348.00,2994.00,3420.20,600.48,593.48,33.09,0000 0000 0000 0000 000000
2017-05-29 02:17:39,0.03,0.34,0.00,25.07,28.34,30.88,14.30,46.47,1018.52,2025.93,3348.00,2994.00,3420.43,599.69,592.66,33.14,0000 0000 0000 0000 000000
2017-05-29 02:22:40,-0.00,0.34,0.00,25.05,28.28,30.86,14.38,46.55,1018.40,2026.00,3348.00,2994.03,3420.81,600.19,593.08,33.19,0000 0000 0000 0000 000000
2017-05-29 02:27:42,0.01,0.34,0.00,25.03,28.21,30.84,14.30,46.48,1018.28,2026.11,3347.99,2994.04,3420.94,599.91,592.92,33.24,0000 0000 0000 0000 000000
2017-05-29 02:32:43,0.06,0.34,0.00,25.02,28.16,30.82,14.37,46.53,1018.26,2026.69,3347.95,2994.03,3420.95,599.92,592.89,33.29,0000 0000 0000 0000 000000
2017-05-29 02:37:44,0.01,0.34,0.00,25.01,28.10,30.81,14.35,46.51,1018.27,2026.98,3347.85,2994.12,3420.98,599.76,592.76,33.34,0000 0000 0000 0000 000000
2017-05-29 02:42:45,0.01,0.34,0.00,25.02,28.04,30.81,14.30,46.58,1018.21,2027.00,3347.37,2994.10,3420.97,599.97,592.96,33.39,0000 0000 0000 0000 000000
2017-05-29 02:47:47,0.02,0.34,0.00,24.99,27.99,30.83,14.38,46.66,1018.16,2027.22,3347.12,2994.30,3420.97,600.02,592.97,33.44,0000 0000 0000 0000 000000
2017-05-29 02:52:47,0.05,0.34,0.00,24.98,27.94,30.79,14.35,46.59,1018.10,2027.85,3347.05,2994.43,3420.99,600.18,592.94,33.49,0000 0000 0000 0000 000000
2017-05-29 02:57:49,-0.00,0.34,0.00,24.97,27.90,30.78,14.34,46.77,1018.11,2027.99,3347.03,2994.68,3420.99,599.28,592.24,33.54,0000 0000 0000 0000 000000
2017-05-29 03:02:50,-0.00,0.34,0.00,24.97,27.86,30.69,14.35,46.73,1018.10,2027.99,3347.01,2994.82,3420.99,599.86,592.80,33.59,0000 0000 0000 0000 000000
2017-05-29 03:07:51,-0.00,0.34,0.00,24.95,27.81,30.71,14.37,46.73,1018.10,2028.02,3347.07,2994.97,3420.99,599.79,592.84,33.64,0000 0000 0000 0000 000000
2017-05-29 03:12:52,0.00,0.34,0.00,24.93,27.78,30.69,14.30,46.73,1018.09,2028.11,3347.54,2994.99,3421.05,599.63,592.61,33.69,0000 0000 0000 0000 000000
2017-05-29 03:17:53,0.02,0.35,0.00,24.95,27.74,30.65,14.40,46.76,1018.08,2028.45,3347.86,2994.99,3421.46,600.04,593.07,33.74,0000 0000 0000 0000 000000
2017-05-29 03:22:55,0.02,0.35,0.00,24.93,27.71,30.59,14.27,46.76,1018.08,2028.85,3347.93,2995.02,3421.92,599.45,592.47,33.79,0000 0000 0000 0000 000000
2017-05-29 03:27:56,0.00,0.35,0.00,24.86,27.68,30.57,14.40,46.76,1018.09,2028.97,3347.97,2995.06,3421.97,600.00,593.04,33.84,0000 0000 0000 0000 000000
2017-05-29 03:32:57,-0.01,0.35,0.00,24.80,27.66,30.53,14.42,46.98,1018.09,2028.99,3347.99,2995.36,3421.99,600.15,593.44,33.89,0000 0000 0000 0000 000000
2017-05-29 03:37:59,-0.01,0.35,0.00,24.65,27.64,30.46,14.37,46.93,1018.10,2028.99,3347.99,2995.73,3421.99,599.75,593.35,33.95,0000 0000 0000 0000 000000
2017-05-29 03:43:00,0.00,0.35,0.00,24.47,27.62,30.42,14.37,46.97,1018.11,2028.99,3347.98,2995.67,3421.99,600.02,593.82,34.00,0000 0000 0000 0000 000000
2017-05-29 03:48:01,0.00,0.35,0.00,24.40,27.60,30.37,14.45,47.05,1018.10,2028.99,3347.97,2995.67,3421.99,600.17,594.31,34.05,0000 0000 0000 0000 000000
2017-05-29 03:53:02,0.00,0.35,0.00,24.40,27.59,30.38,14.43,47.08,1018.08,2029.00,3347.95,2995.82,3422.00,600.20,594.26,34.10,0000 0000 0000 0000 000000
2017-05-29 03:58:03,-0.00,0.35,0.00,24.40,27.57,30.38,14.37,46.97,1018.09,2029.02,3347.87,2995.70,3422.00,600.10,594.15,34.15,0000 0000 0000 0000 000000
2017-05-29 04:03:04,0.01,0.35,0.00,24.41,27.57,30.37,14.32,46.98,1018.09,2029.01,3347.70,2995.55,3422.00,599.97,594.05,34.20,0000 0000 0000 0000 000000
2017-05-29 04:08:06,0.02,0.35,0.00,24.44,27.57,30.35,14.35,46.98,1018.08,2029.02,3347.20,2995.20,3421.99,599.88,593.77,34.25,0000 0000 0000 0000 000000
2017-05-29 04:13:07,0.00,0.35,0.00,24.47,27.55,30.33,14.41,47.11,1018.08,2029.07,3347.05,2995.24,3421.98,600.01,593.96,34.30,0000 0000 0000 0000 000000
2017-05-29 04:18:08,0.00,0.35,0.00,24.51,27.55,30.33,14.38,47.05,1018.08,2029.09,3347.01,2995.18,3421.98,600.14,593.83,34.35,0000 0000 0000 0000 000000
2017-05-29 04:23:09,0.01,0.35,0.00,24.53,27.55,30.33,14.35,47.02,1018.08,2029.22,3347.00,2995.07,3421.95,600.08,593.85,34.40,0000 0000 0000 0000 000000
2017-05-29 04:28:10,0.02,0.35,0.00,24.57,27.55,30.32,14.34,47.00,1018.08,2029.28,3347.00,2995.03,3421.92,600.04,593.85,34.45,0000 0000 0000 0000 000000
2017-05-29 04:33:11,-0.01,0.35,0.00,24.56,27.55,30.32,14.41,47.01,1018.08,2029.29,3346.99,2995.01,3421.72,600.06,593.79,34.50,0000 0000 0000 0000 000000
2017-05-29 04:38:12,0.01,0.35,0.00,24.60,27.55,30.32,14.39,46.96,1018.08,2029.35,3346.91,2995.00,3421.26,599.92,593.62,34.55,0000 0000 0000 0000 000000
2017-05-29 04:43:14,-0.00,0.35,0.00,24.62,27.56,30.32,14.40,46.94,1018.08,2029.26,3346.31,2995.00,3421.03,599.84,593.36,34.60,0000 0000 0000 0000 000000
2017-05-29 04:48:15,-0.00,0.35,0.00,24.61,27.57,30.33,14.41,47.00,1018.08,2029.15,3346.01,2994.98,3421.00,599.78,593.44,34.65,0000 0000 0000 0000 000000
2017-05-29 04:53:16,0.01,0.35,0.00,24.64,27.57,30.34,14.40,47.03,1018.08,2029.24,3346.00,2994.97,3421.00,599.95,593.57,34.70,0000 0000 0000 0000 000000
2017-05-29 04:58:18,-0.00,0.35,0.00,24.65,27.57,30.35,14.42,47.01,1018.07,2029.23,3345.99,2994.84,3420.99,599.89,593.55,34.75,0000 0000 0000 0000 000000
2017-05-29 05:03:19,0.02,0.35,0.00,24.70,27.59,30.37,14.39,46.93,1018.05,2029.16,3345.78,2994.40,3420.90,599.92,593.41,34.80,0000 0000 0000 0000 000000
2017-05-29 05:08:20,0.02,0.35,0.00,24.70,27.60,30.37,14.45,46.93,1018.02,2029.11,3345.13,2994.07,3420.42,600.06,593.52,34.85,0000 0000 0000 0000 000000
2017-05-29 05:13:22,0.00,0.35,0.00,24.72,27.60,30.38,14.36,46.90,1017.93,2029.15,3345.01,2994.00,3420.06,600.02,593.34,34.90,0000 0000 0000 0000 000000
2017-05-29 05:18:23,-0.00,0.35,0.00,24.72,27.61,30.38,14.44,46.99,1017.92,2029.05,3344.99,2994.00,3420.00,600.48,593.85,34.96,0000 0000 0000 0000 000000
2017-05-29 05:23:24,0.00,0.35,0.00,24.70,27.62,30.40,14.28,46.95,1018.01,2029.04,3344.84,2993.98,3420.00,600.04,593.54,35.01,0000 0000 0000 0000 000000
2017-05-29 05:28:25,0.02,0.35,0.00,24.69,27.63,30.40,14.36,46.92,1018.02,2029.02,3344.14,2993.80,3419.86,600.01,593.43,35.06,0000 0000 0000 0000 000000
2017-05-29 05:33:26,0.01,0.35,0.00,24.73,27.65,30.41,14.34,46.93,1018.06,2029.01,3344.01,2993.43,3419.46,600.00,593.41,35.11,0000 0000 0000 0000 000000
2017-05-29 05:38:27,0.01,0.36,0.00,24.70,27.66,30.41,14.28,46.88,1018.02,2029.01,3344.00,2993.07,3419.06,599.79,593.42,35.16,0000 0000 0000 0000 000000
2017-05-29 05:43:29,0.00,0.36,0.00,24.68,27.67,30.42,14.37,46.98,1018.05,2029.00,3343.92,2993.00,3419.00,599.96,593.53,35.21,0000 0000 0000 0000 000000
2017-05-29 05:48:30,0.01,0.36,0.00,24.69,27.68,30.42,14.34,46.84,1018.06,2029.00,3343.30,2993.00,3418.99,600.06,593.52,35.26,0000 0000 0000 0000 000000
2017-05-29 05:53:31,0.00,0.36,0.00,24.67,27.70,30.43,14.36,46.98,1018.06,2029.00,3343.03,2992.97,3418.94,599.92,593.47,35.31,0000 0000 0000 0000 000000
2017-05-29 05:58:33,0.01,0.36,0.00,24.67,27.70,30.45,14.37,46.93,1018.08,2029.00,3343.00,2992.86,3418.40,599.89,593.42,35.36,0000 0000 0000 0000 000000
2017-05-29 06:03:34,0.01,0.36,0.00,24.67,27.72,30.45,14.42,46.92,1018.08,2029.00,3342.96,2992.41,3418.03,600.11,593.75,35.41,0000 0000 0000 0000 000000
2017-05-29 06:08:35,0.02,0.36,0.00,24.64,27.72,30.48,14.35,46.88,1018.08,2029.00,3342.27,2992.02,3418.00,600.02,593.58,35.46,0000 0000 0000 0000 000000
2017-05-29 06:13:37,0.00,0.36,0.00,24.64,27.75,30.46,14.41,46.98,1018.08,2028.99,3342.02,2992.00,3417.98,600.27,593.70,35.51,0000 0000 0000 0000 000000
2017-05-29 06:18:38,0.00,0.36,0.00,24.64,27.75,30.45,14.32,46.92,1018.08,2028.97,3342.00,2992.00,3417.73,599.91,593.53,35.56,0000 0000 0000 0000 000000
2017-05-29 06:23:39,0.00,0.36,0.00,24.65,27.76,30.47,14.43,46.98,1018.08,2028.99,3341.98,2991.99,3417.35,600.17,593.74,35.61,0000 0000 0000 0000 000000
2017-05-29 06:28:40,0.00,0.36,0.00,24.64,27.77,30.49,14.38,46.91,1018.09,2028.99,3341.84,2991.97,3417.07,600.02,593.44,35.66,0000 0000 0000 0000 000000
2017-05-29 06:33:42,0.02,0.36,0.00,24.67,27.78,30.51,14.35,46.95,1018.08,2028.97,3341.20,2991.64,3417.00,599.89,593.49,35.71,0000 0000 0000 0000 000000
2017-05-29 06:38:43,0.01,0.36,0.00,24.66,27.80,30.50,14.42,47.04,1018.08,2028.95,3341.00,2991.06,3416.99,600.00,593.63,35.76,0000 0000 0000 0000 000000
2017-05-29 06:43:44,0.00,0.36,0.00,24.65,27.80,30.51,14.44,47.04,1018.08,2028.95,3340.96,2991.01,3416.90,599.96,593.44,35.82,0000 0000 0000 0000 000000
2017-05-29 06:48:45,-0.00,0.36,0.00,24.66,27.80,30.52,14.33,46.90,1018.08,2028.88,3340.82,2991.00,3416.39,599.82,593.34,35.87,0000 0000 0000 0000 000000
2017-05-29 06:53:47,0.02,0.36,0.00,24.65,27.81,30.51,14.52,46.99,1018.08,2028.86,3340.30,2990.99,3416.14,600.53,594.05,35.92,0000 0000 0000 0000 000000
2017-05-29 06:58:48,-0.02,0.36,0.00,24.67,27.82,30.50,14.36,46.99,1018.08,2028.71,3340.01,2990.92,3416.01,600.18,593.66,35.97,0000 0000 0000 0000 000000
2017-05-29 07:03:49,-0.02,0.36,0.00,24.66,27.82,30.54,14.47,46.94,1018.08,2028.46,3340.00,2990.59,3416.00,600.39,594.02,36.02,0000 0000 0000 0000 000000
2017-05-29 07:08:50,0.01,0.36,0.00,24.68,27.82,30.54,14.33,46.92,1018.08,2028.26,3339.95,2990.17,3415.98,599.99,593.50,36.07,0000 0000 0000 0000 000000
2017-05-29 07:13:51,-0.01,0.36,0.00,24.68,27.83,30.53,14.31,46.93,1018.08,2028.15,3339.56,2990.03,3415.80,599.85,593.41,36.12,0000 0000 0000 0000 000000
2017-05-29 07:18:53,0.01,0.36,0.00,24.69,27.84,30.54,14.32,46.95,1018.08,2028.11,3339.15,2990.00,3415.58,600.06,593.52,36.17,0000 0000 0000 0000 000000
2017-05-29 07:23:54,0.00,0.36,0.00,24.65,27.85,30.55,14.33,46.93,1018.08,2028.09,3339.01,2990.00,3415.15,600.06,593.58,36.22,0000 0000 0000 0000 000000
2017-05-29 07:28:55,-0.00,0.36,0.00,24.65,27.85,30.52,14.46,47.00,1018.08,2028.04,3339.00,2990.00,3415.01,600.26,593.82,36.27,0000 0000 0000 0000 000000
2017-05-29 07:33:56,0.00,0.36,0.00,24.68,27.85,30.55,14.29,46.96,1018.08,2028.03,3338.99,2990.00,3415.00,599.71,593.20,36.32,0000 0000 0000 0000 000000
2017-05-29 07:38:58,0.00,0.36,0.00,24.67,27.85,30.56,14.38,47.00,1018.08,2028.01,3338.84,2989.91,3414.98,599.81,593.37,36.37,0000 0000 0000 0000 000000
2017-05-29 07:43:59,0.02,0.36,0.00,24.67,27.85,30.57,14.45,46.97,1018.08,2028.00,3338.31,2989.58,3414.94,600.43,593.99,36.42,0000 0000 0000 0000 000000
2017-05-29 07:49:01,0.01,0.36,0.00,24.68,27.85,30.57,14.44,47.08,1018.08,2028.00,3338.02,2989.15,3414.54,600.22,593.82,36.47,0000 0000 0000 0000 000000
2017-05-29 07:54:02,0.00,0.37,0.00,24.67,27.85,30.57,14.40,47.01,1018.08,2028.00,3338.00,2989.02,3414.08,600.10,593.65,36.52,0000 0000 0000 0000 000000
2017-05-29 07:59:03,0.00,0.37,0.00,24.68,27.85,30.57,14.38,47.04,1018.09,2028.00,3338.00,2989.01,3414.02,599.86,593.34,36.57,0000 0000 0000 0000 000000
2017-05-29 08:04:04,0.00,0.37,0.00,24.67,27.86,30.58,14.35,46.94,1018.10,2028.00,3337.95,2989.00,3414.00,600.10,593.57,36.62,0000 0000 0000 0000 000000
2017-05-29 08:09:05,0.00,0.37,0.00,24.66,27.86,30.57,14.35,46.99,1018.11,2028.00,3337.64,2989.00,3414.00,600.09,593.74,36.67,0000 0000 0000 0000 000000
2017-05-29 08:14:06,0.00,0.37,0.00,24.65,27.86,30.58,14.41,47.02,1018.15,2028.00,3337.29,2989.00,3413.98,600.23,593.75,36.73,0000 0000 0000 0000 000000
2017-05-29 08:19:07,0.00,0.37,0.00,24.66,27.87,30.58,14.37,46.98,1018.09,2028.00,3337.04,2988.97,3413.97,599.70,593.35,36.78,0000 0000 0000 0000 000000
2017-05-29 08:24:08,0.01,0.37,0.00,24.65,27.87,30.59,14.43,46.97,1018.10,2028.00,3337.00,2988.85,3413.71,600.14,593.74,36.83,0000 0000 0000 0000 000000
2017-05-29 08:29:10,0.01,0.37,0.00,24.66,27.87,30.58,14.45,47.01,1018.10,2028.00,3336.99,2988.44,3413.19,600.06,593.64,36.88,0000 0000 0000 0000 000000
2017-05-29 08:34:11,0.00,0.37,0.00,24.67,27.86,30.58,14.41,46.91,1018.09,2028.00,3336.93,2988.15,3413.05,600.30,593.76,36.93,0000 0000 0000 0000 000000
2017-05-29 08:39:12,0.01,0.37,0.00,24.65,27.87,30.58,14.43,47.00,1018.22,2028.00,3336.40,2988.03,3413.00,600.15,593.83,36.98,0000 0000 0000 0000 000000
2017-05-29 08:44:13,0.00,0.37,0.00,24.64,27.86,30.57,14.38,46.97,1018.25,2027.99,3336.17,2988.01,3413.00,599.66,593.41,37.03,0000 0000 0000 0000 000000
2017-05-29 08:49:15,0.00,0.37,0.00,24.64,27.86,30.56,14.37,46.96,1018.24,2027.99,3336.04,2988.00,3413.00,600.22,593.97,37.08,0000 0000 0000 0000 000000
2017-05-29 08:54:16,0.00,0.37,0.00,24.65,27.87,30.58,14.40,47.02,1018.23,2027.99,3336.00,2988.00,3412.99,599.65,593.37,37.13,0000 0000 0000 0000 000000
2017-05-29 08:59:18,0.00,0.37,0.00,24.66,27.87,30.58,14.33,46.98,1018.24,2027.99,3335.99,2988.00,3412.95,600.15,593.99,37.18,0000 0000 0000 0000 000000
2017-05-29 09:04:19,0.00,0.37,0.00,24.66,27.87,30.58,14.40,47.08,1018.21,2027.99,3335.98,2988.00,3412.86,599.89,593.47,37.23,0000 0000 0000 0000 000000
2017-05-29 09:09:20,0.01,0.37,0.00,24.67,27.87,30.58,14.33,46.92,1018.21,2027.99,3335.62,2987.96,3412.39,599.87,593.40,37.28,0000 0000 0000 0000 000000
2017-05-29 09:14:22,0.02,0.37,0.00,24.69,27.87,30.57,14.46,47.08,1018.20,2027.99,3335.09,2987.72,3412.02,600.32,593.92,37.33,0000 0000 0000 0000 000000
2017-05-29 09:19:23,0.01,0.37,0.00,24.68,27.87,30.59,14.41,47.04,1018.35,2027.99,3335.01,2987.35,3412.01,600.10,593.83,37.38,0000 0000 0000 0000 000000
2017-05-29 09:24:24,0.00,0.37,0.00,24.67,27.87,30.58,14.32,46.95,1018.17,2027.99,3335.00,2987.12,3412.00,599.72,593.36,37.43,0000 0000 0000 0000 000000
2017-05-29 09:29:25,0.00,0.37,0.00,24.65,27.87,30.58,14.34,47.02,1018.11,2027.99,3334.98,2987.02,3411.99,600.02,593.68,37.48,0000 0000 0000 0000 000000
2017-05-29 09:34:27,0.01,0.37,0.00,24.66,27.87,30.59,14.35,47.09,1018.10,2027.99,3334.72,2987.01,3411.92,599.59,593.25,37.53,0000 0000 0000 0000 000000
2017-05-29 09:39:28,0.01,0.37,0.00,24.66,27.87,30.59,14.44,47.05,1018.10,2027.99,3334.09,2986.99,3411.43,600.00,593.59,37.58,0000 0000 0000 0000 000000
2017-05-29 09:44:29,0.00,0.37,0.00,24.67,27.87,30.59,14.38,47.06,1018.11,2027.99,3334.01,2986.99,3411.11,599.86,593.44,37.64,0000 0000 0000 0000 000000
2017-05-29 09:49:31,0.00,0.37,0.00,24.67,27.87,30.60,14.39,47.05,1018.14,2027.99,3334.00,2986.97,3411.01,599.91,593.60,37.69,0000 0000 0000 0000 000000
2017-05-29 09:54:31,0.00,0.37,0.00,24.64,27.87,30.60,14.38,47.08,1018.19,2027.99,3333.95,2986.90,3411.00,600.06,593.66,37.74,0000 0000 0000 0000 000000
2017-05-29 09:59:33,0.03,0.37,0.00,24.61,27.87,30.59,14.40,47.02,1018.25,2027.99,3333.31,2986.27,3411.00,600.07,593.79,37.79,0000 0000 0000 0000 000000
2017-05-29 10:04:34,0.00,0.38,0.00,24.61,27.87,30.61,14.44,47.08,1018.28,2027.99,3333.03,2986.06,3410.98,600.20,593.98,37.84,0000 0000 0000 0000 000000
2017-05-29 10:09:35,0.00,0.38,0.00,24.64,27.87,30.57,14.43,47.02,1018.32,2027.99,3333.00,2986.01,3410.71,600.07,593.79,37.89,0000 0000 0000 0000 000000
2017-05-29 10:14:36,0.00,0.38,0.00,24.65,27.87,30.60,14.38,47.05,1018.26,2027.99,3332.97,2986.00,3410.27,599.98,593.73,37.94,0000 0000 0000 0000 000000
2017-05-29 10:19:37,0.00,0.38,0.00,24.63,27.86,30.60,14.44,47.07,1018.20,2027.99,3332.90,2986.00,3410.08,600.20,593.87,37.99,0000 0000 0000 0000 000000
2017-05-29 10:24:38,0.01,0.38,0.00,24.61,27.85,30.60,14.42,47.00,1018.18,2027.99,3332.34,2985.99,3410.01,600.27,593.97,38.04,0000 0000 0000 0000 000000
2017-05-29 10:29:40,0.00,0.38,0.00,24.62,27.85,30.60,14.35,46.97,1018.13,2027.99,3332.09,2985.98,3410.00,600.09,593.76,38.09,0000 0000 0000 0000 000000
2017-05-29 10:34:41,0.00,0.38,0.00,24.61,27.85,30.60,14.43,47.15,1018.14,2027.99,3332.01,2985.98,3410.00,599.97,593.65,38.14,0000 0000 0000 0000 000000
2017-05-29 10:39:42,0.00,0.38,0.00,24.61,27.85,30.61,14.36,47.04,1018.13,2027.99,3332.00,2985.97,3410.00,600.07,593.68,38.19,0000 0000 0000 0000 000000
2017-05-29 10:44:43,0.00,0.38,0.00,24.61,27.85,30.60,14.35,46.98,1018.22,2027.99,3332.00,2985.94,3409.99,599.80,593.58,38.24,0000 0000 0000 0000 000000
2017-05-29 10:49:44,0.00,0.38,0.00,24.65,27.84,30.61,14.40,46.99,1018.37,2027.99,3331.99,2985.86,3409.99,599.86,593.62,38.29,0000 0000 0000 0000 000000
2017-05-29 10:54:46,0.00,0.38,0.00,24.61,27.84,30.59,14.30,46.98,1018.36,2027.99,3331.97,2985.60,3409.92,599.63,593.47,38.34,0000 0000 0000 0000 000000
2017-05-29 10:59:47,0.02,0.38,0.00,24.60,27.82,30.61,14.32,47.05,1018.44,2027.99,3331.82,2985.35,3409.77,599.75,593.63,38.39,0000 0000 0000 0000 000000
2017-05-29 11:04:48,0.01,0.38,0.00,24.58,27.82,30.61,14.35,47.05,1018.45,2027.99,3331.52,2985.28,3409.58,599.93,593.75,38.44,0000 0000 0000 0000 000000
2017-05-29 11:09:49,0.01,0.38,0.00,24.59,27.82,30.61,14.33,46.93,1018.36,2027.99,3331.13,2985.10,3409.30,599.82,593.69,38.49,0000 0000 0000 0000 000000
2017-05-29 11:14:51,0.00,0.38,0.00,24.61,27.82,30.61,14.36,47.07,1018.41,2027.99,3331.01,2985.03,3409.07,599.64,593.45,38.55,0000 0000 0000 0000 000000
2017-05-29 11:19:52,0.00,0.38,0.00,24.62,27.82,30.61,14.54,47.08,1018.30,2027.99,3331.00,2985.01,3409.02,600.63,594.45,38.60,0000 0000 0000 0000 000000
2017-05-29 11:24:53,0.00,0.38,0.00,24.60,27.82,30.61,14.32,46.98,1018.27,2027.99,3331.00,2985.01,3409.01,599.97,593.76,38.65,0000 0000 0000 0000 000000
2017-05-29 11:29:54,0.00,0.38,0.00,24.63,27.81,30.60,14.38,46.92,1018.16,2028.00,3330.87,2985.00,3409.00,600.14,593.81,38.70,0000 0000 0000 0000 000000
2017-05-29 11:34:56,0.00,0.38,0.00,24.62,27.80,30.69,14.38,46.97,1018.12,2028.00,3330.61,2985.00,3408.99,599.96,593.58,38.75,0000 0000 0000 0000 000000
2017-05-29 11:39:57,0.00,0.38,0.00,24.70,27.80,30.71,14.38,47.04,1018.10,2028.00,3330.24,2985.00,3408.99,600.16,593.74,38.80,0000 0000 0000 0000 000000
2017-05-29 11:44:58,-0.00,0.38,0.00,24.83,27.80,30.72,14.36,46.93,1018.09,2028.02,3330.50,2984.99,3408.99,599.67,592.79,38.85,0000 0000 0000 0000 000000
2017-05-29 11:49:59,0.00,0.38,0.00,25.01,27.80,30.77,14.34,46.93,1018.09,2028.02,3330.30,2984.99,3408.99,600.06,592.90,38.90,0000 0000 0000 0000 000000
2017-05-29 11:55:00,0.00,0.38,0.00,25.10,27.82,30.81,14.28,47.02,1018.09,2028.00,3330.04,2984.95,3408.75,599.80,592.52,38.95,0000 0000 0000 0000 000000
2017-05-29 12:00:02,0.03,0.38,0.00,25.23,27.84,30.83,14.24,46.94,1018.12,2028.00,3329.99,2984.37,3408.06,599.95,592.32,39.00,0000 0000 0000 0000 000000
2017-05-29 12:05:03,0.00,0.38,0.00,25.36,27.86,30.88,14.32,47.07,1018.10,2028.00,3329.93,2984.04,3408.00,599.90,592.13,39.05,0000 0000 0000 0000 000000
2017-05-29 12:10:04,0.01,0.38,0.00,25.46,27.89,30.97,14.29,47.08,1018.09,2028.00,3329.29,2984.00,3407.97,599.89,591.88,39.10,0000 0000 0000 0000 000000
2017-05-29 12:15:06,0.01,0.38,0.00,25.54,27.91,30.99,14.39,47.09,1018.09,2028.00,3329.01,2983.98,3407.50,600.37,592.08,39.15,0000 0000 0000 0000 000000
2017-05-29 12:20:07,0.04,0.39,0.00,25.65,27.95,31.02,14.32,47.04,1018.10,2027.97,3328.61,2983.29,3407.02,600.06,591.65,39.20,0000 0000 0000 0000 000000
2017-05-29 12:25:08,0.01,0.39,0.00,25.74,27.99,31.02,14.27,46.98,1018.13,2027.91,3328.03,2982.99,3406.62,600.00,591.44,39.25,0000 0000 0000 0000 000000
2017-05-29 12:30:09,-0.04,0.39,0.00,25.79,28.03,31.03,14.22,46.87,1018.27,2027.35,3327.88,2982.69,3406.02,599.79,591.24,39.30,0000 0000 0000 0000 000000
2017-05-29 12:35:11,0.02,0.39,0.00,25.84,28.07,31.04,14.35,47.03,1018.24,2027.02,3327.10,2982.04,3405.71,600.02,591.44,39.35,0000 0000 0000 0000 000000
2017-05-29 12:40:12,0.00,0.39,0.00,25.90,28.12,31.11,14.37,46.92,1018.22,2027.00,3326.99,2981.98,3405.05,600.25,591.41,39.40,0000 0000 0000 0000 000000
2017-05-29 12:45:13,0.03,0.39,0.00,25.91,28.16,31.15,14.21,46.88,1018.13,2027.00,3326.35,2981.37,3404.92,599.80,590.91,39.45,0000 0000 0000 0000 000000
2017-05-29 12:50:15,0.01,0.39,0.00,25.96,28.20,31.19,14.27,46.92,1018.25,2026.96,3326.00,2981.01,3404.19,599.86,590.89,39.51,0000 0000 0000 0000 000000
2017-05-29 12:55:16,-0.02,0.39,0.00,25.99,28.25,31.28,14.30,47.00,1018.28,2026.74,3325.69,2980.87,3403.98,600.06,591.07,39.56,0000 0000 0000 0000 000000